Погода в Свистуновке

Украина / Луганская область     49°29′32″N   38°20′53″E
темп.,
°C
ветер,
м/с
пор.,
м/с
влажн.,
%
обл.,
%
осадки,
мм/ч
давл.,
гПа
погр.,
м
27 ноября, сб
сб2723:00−2юв35905 0.0 101881
02:000юв41186100 0.0 1016231
05:00+2юв71681100 0.0 1014391
08:00+1юв81884100 0.0 1013467
11:00+3юв81985100 2.4 1010519
14:00+5ююв81868100 3.5 1009646
17:00+5ююв71479100 0.1 1008454
20:00+6ююв61387100 0.3 1008375
28 ноября, вс
вс2823:00+6ю51196100 0.1 1008238
02:00+7ю5119799 0.1 1008314
05:00+8ююз51096100 0.0 1008412
08:00+8юз4791100 0.0 1009313
11:00+9ююз3682100 0.0 1010612
14:00+9ююз4578100 0.0 1011648
17:00+7юв34890 0.0 101151
20:00+7юв3795100 0.0 1011113
29 ноября, пн
пн2923:00+7ююв41197100 0.0 1011250
02:00+10ююв61696100 6.1 1008685
05:00+10ююв71595100 3.3 1006707
08:00+11ююв81590100 4.3 1006743
11:00+11ю81585100 0.0 1004825
14:00+11ю92090100 2.8 10001000
17:00+13ю112081100 0.7 9971003
20:00+13ю112083100 2.3 9941033
30 ноября, вт
вт3023:00+13ююз122082100 0.1 9931394
02:00+12юз9157999 1.2 994892
05:00+8зюз8147994 0.0 996648
08:00+6з71369100 0.0 998619
11:00+6зюз71257100 0.0 999768
14:00+6зюз61153100 0.0 999872
17:00+4юз5116231 0.0 999390
20:00+3зюз5116599 0.0 998471
1 декабря, ср
ср123:00+2з5116865 0.0 996600
02:00+1з61076100 0.0 999681
05:00−1з6138095 0.0 1000707
08:00−1з6117616 0.0 1003759
11:00+1зюз7106350 0.0 10041011
14:00+2зюз6105698 0.0 10041066
17:00+2зюз7126099 0.0 10041030
20:00+1зюз61266100 0.0 1004802